STARLINK-11165, 60063

Orbit data source: Space-Track

STARLINK-11165, 60063 is a payload satellite owned by SpaceX/Seattle (US) in LEO that was launched on Wed, 19 Jun 2024 UTC via an FALCON 9 launch vehicle from the Air Force Western Test Range (AFWTR). Payload-class satellites include a variety of spacecraft equipped with specific instruments for various scientific and technological missions. These include communications satellites like Starlink; space stations such as the ISS; scientific satellites like the Hubble; Earth observation satellites from companies like Planet Labs, Umbra, and HawkEye 360; GPS; miniature CubeSats for education and research; and military/defense satellites.

Loading next visibility...
Identifier
60063, 2024-113E
Orbit
LEO
Last TLE update
21 hours ago
Origin
Manufacturer
SpaceX/Seattle
Mission
Operational Commercial Communications
Bus & Motor
STARLINK V2M, Unknown motor
Mass
730 kg wet, ~700 kg dry
Launch date (UTC)
2024-06-19 (11 months ago)
Launch vehicle
FALCON 9
Launch site
Air Force Western Test Range (AFWTR)
Object type
Payload
Rocket body
Debris
Shape & HBR
Box + 2 Pan, 29 m
Radar Cross Section
36.964 m², Large (>1 m²)

Expand to show TLE details & history

TLE from 21 hours ago
0 STARLINK-11165
1 60063U 24113E   25131.01295233  .00019512  00000-0  16567-3 0  9999
2 60063  53.1576 243.2057 0001302  89.1813 270.9354 15.69689595 52227
Epoch: 2025-05-11T00:18Z
Definitive object data (Epoch: 2025-05-11T00:18:39.081Z)
Latitude
-0.00002°
Longitude
9.49636°
Altitude
360.686 km
Speed
7.694 km/s
True Right ascension
16h 12m 49s
True Declination
0° 00' 00"
Sunlit
Object was in full shadow at TLE epoch
Visualization TLE readout
Latitude
19.56488°
Longitude
20.43341°
Altitude
359.79 km
Speed
7.697 km/s
Apparent Right ascension
17h 27m 31s
Apparent Declination
-9° 20' 16"
Sunlit
Object is in full shadow
Visualization observer readout
Local Sidereal Time
06:07:43
Azimuth
19.043° NNE
Elevation
-58.137°
Doppler factor
1
Orbital elements
Apogee altitude
360.924 km
Perigee altitude
359.169 km
Semi-major axis
6,738.183 km
Eccentricity
0.0001302
Inclination
53.1576°
RAAN
243.2057°
Arg. of periapsis
89.1813°
True anomaly
270.92048°
Mean anomaly
270.9354°
Eccentric anomaly
270.92794°
Mean motion
3.924 °/min
BSTAR
0.00016567
Orbital period
91.74 mins
Loading maneuver chart data...
Loading SW <> Apogee altitude chart data...
Loading historical data...
Loading historical data...
Loading historical data...
Loading historical data...
Loading historical data...
Loading historical data...
Loading historical data...

STARLINK-11165 Visibility forecast

Observer location: undefined°, undefined°

Span
Click to sort rows by Start time (UTC) header in descending order
Start Az.
Max El. time (UTC)
Max El. Az.
Max El.
End time (UTC)
End Az.
5 mins2025-05-12 10:07:29.044Z240.114° WSW2025-05-12 10:09:29.044Z298.609° NW42.187°2025-05-12 10:12:29.044Z45.076° ENE
4 mins2025-05-12 16:32:29.044Z316.613° NNW2025-05-12 16:34:29.044Z66.989° ENE43.23°2025-05-12 16:36:29.044Z122.609° SE
|